Temperature
20 21 21 21 22 20 20 19 19 20 19 19 18 18 18 19 19 19 19 19 19 19 19 19 19 19 18 18 18 17 17 17 17 17 16 16 16 16 16 16 15 15 15 15
21 21 21 21 21 21 21 20 19 20 19 18 18 18 18 19 19 19 19 20 20 19 19 19 19 18 18 18 17 17 17 17 17 16 16 16 16 15 15 15 15 15 15 14
19 20 21 20 20 20 20 19 19 19 19 18 17 17 18 19 19 19 19 19 20 20 19 19 19 18 18 18 17 17 17 16 16 16 16 15 15 15 15 15 15 14 14 14
17 19 20 20 20 20 20 19 18 18 18 17 18 19 19 20 20 20 20 20 20 20 19 19 19 18 18 17 17 17 16 16 16 16 15 15 15 15 15 14 14 14 14 14
15 17 18 19 20 19 19 19 18 18 18 18 18 18 19 20 20 20 20 20 20 20 19 19 19 18 18 17 17 17 16 16 16 15 15 15 15 15 15 14 14 14 14 14
15 17 18 19 20 20 19 19 18 18 17 17 17 17 18 20 20 20 20 20 19 19 19 18 18 18 17 17 17 16 16 16 15 15 15 15 15 14 14 14 14 13 13 13
15 16 17 18 18 19 19 19 19 18 18 17 17 18 20 20 20 20 20 20 19 19 18 18 18 17 17 17 16 16 16 15 15 15 15 14 14 14 14 14 14 13 13 13
14 16 17 18 18 18 18 19 19 19 19 18 19 19 19 20 20 19 19 19 19 18 18 17 17 17 17 16 16 16 15 15 15 14 14 14 14 14 14 13 13 13 13 13
14 15 16 17 18 19 19 19 19 19 19 19 19 19 19 19 19 19 19 19 18 18 17 17 17 17 16 16 16 15 15 14 14 14 14 14 14 13 13 13 13 13 13 13
14 15 16 17 18 18 19 19 19 19 19 18 18 18 18 18 18 18 18 18 18 17 17 17 17 16 16 16 15 15 15 14 14 14 14 13 13 13 13 13 13 13 13 13
13 14 15 17 18 18 18 18 18 18 18 18 18 18 18 18 18 18 18 18 17 17 17 17 16 16 16 15 15 15 14 14 14 14 13 13 13 13 13 13 12 12 13 13
14 15 14 16 18 18 18 18 18 18 18 18 18 17 17 17 17 17 17 17 17 17 16 16 16 15 15 15 15 14 14 14 13 13 13 13 13 13 13 13 12 12 12 12
16 17 17 17 17 17 17 17 17 17 17 17 17 17 17 17 17 16 17 17 16 16 16 15 15 15 15 14 14 14 14 14 13 13 13 13 13 13 12 13 12 12 12 12
16 16 16 16 16 17 17 17 17 17 17 17 17 16 16 16 16 16 16 16 16 15 15 15 15 14 14 14 14 14 13 13 13 13 13 13 13 12 12 12 12 12 12 12
16 16 16 16 16 16 16 16 16 16 16 16 16 16 16 16 16 15 15 15 15 15 14 14 14 14 13 13 13 13 13 13 13 13 13 12 12 12 12 12 12 12 12 12
15 15 15 15 15 15 15 15 15 15 15 15 15 15 15 15 15 15 15 14 14 14 14 13 13 13 13 13 13 12 12 12 12 12 12 12 12 12 12 12 12 12 12 11
15 15 15 15 15 15 15 15 15 15 15 15 15 15 15 14 14 14 14 14 14 14 13 13 13 12 12 12 12 12 12 12 12 12 12 12 12 12 11 11 11 11 11 11
15 15 15 15 15 15 15 15 15 15 15 15 15 15 14 14 14 14 14 13 13 13 13 13 12 12 12 12 12 12 12 12 12 11 11 11 11 11 11 11 11 11 11 11
14 14 14 14 14 14 14 14 14 14 14 14 14 14 14 14 14 13 13 13 13 13 12 12 12 12 12 12 12 12 12 12 11 11 11 11 11 11 11 11 11 11 11 11
14 14 14 14 14 14 14 14 14 14 14 14 14 14 14 14 13 13 13 13 13 13 12 12 12 12 12 12 12 12 11 11 11 11 11 11 11 11 11 11 11 11 11 11
14 14 14 14 14 14 14 14 14 14 14 13 13 13 13 13 13 13 13 13 13 12 12 12 12 12 12 12 11 11 11 11 11 11 11 11 11 11 11 11 11 11 11 10
13 13 13 13 13 13 13 13 13 13 13 13 13 13 13 13 13 13 13 13 12 12 12 12 12 12 12 12 11 11 11 11 11 11 11 11 11 11 11 11 11 10 10 10
13 13 13 13 13 13 12 12 12 12 13 12 12 12 12 13 13 13 12 12 12 12 12 12 12 12 12 11 11 11 11 11 11 11 11 10 10 10 11 11 11 10 10 10
12 12 12 12 12 12 12 12 12 12 12 12 12 12 12 12 12 12 12 12 12 12 12 12 12 11 11 11 11 11 11 11 11 11 11 10 11 10 10 10 10 10 10 10
12 12 12 12 12 12 12 11 12 12 12 12 12 12 12 12 12 12 12 12 12 12 12 12 11 11 11 11 11 11 11 11 11 11 11 11 10 10 10 10 10 10 10 10
12 12 11 11 11 11 11 11 11 12 12 11 11 11 11 11 11 11 11 11 11 11 11 11 11 11 11 11 11 11 10 10 10 10 10 10 10 10 10 10 10 10 9 9
11 11 11 11 11 11 11 11 11 11 11 11 11 11 11 11 11 11 11 11 11 11 11 11 11 11 11 11 10 10 10 10 10 10 10 10 10 10 10 9 9 9 9 9
Wind_Speed
4 3 3 3 3 4 5 7 8 7 7 8 6 6 5 4 4 3 4 4 5 4 4 3 3 3 4 4 4 4 4 4 5 4 3 3 3 3 3 3 3 3 3 3
1 1 1 1 3 3 4 4 5 3 6 6 3 2 3 4 5 5 5 6 5 5 4 4 5 4 4 4 4 4 5 5 4 3 3 3 3 3 3 3 3 3 3 3
3 3 2 3 5 4 3 3 6 7 7 3 2 4 6 6 6 6 6 6 6 6 6 6 6 6 6 5 4 4 4 4 4 3 3 3 3 2 3 4 3 3 4 4
2 2 5 8 3 3 3 2 3 3 4 4 5 4 4 5 6 7 6 6 6 5 6 5 5 5 5 5 5 5 4 4 3 3 3 3 3 3 3 3 3 4 5 5
4 3 5 6 2 4 4 3 2 3 2 1 1 2 2 4 5 7 7 6 6 6 6 5 5 5 5 4 4 4 4 4 4 4 4 4 4 4 3 3 4 4 4 4
4 4 7 7 4 2 4 4 4 3 3 2 3 1 5 5 4 5 4 4 4 4 5 5 5 5 5 5 5 5 5 5 4 4 4 4 4 4 3 3 4 4 4 4
4 4 7 6 3 3 4 7 4 4 4 5 5 6 5 3 3 4 4 4 4 5 5 6 6 6 5 5 6 6 4 3 3 4 4 4 4 3 3 3 3 4 4 4
5 4 7 3 2 5 7 3 2 3 4 5 4 4 4 3 3 3 3 3 4 5 5 4 5 6 6 6 6 4 4 3 3 4 4 3 3 3 2 2 3 3 3 4
7 7 5 3 3 4 2 2 3 3 3 4 3 4 4 3 3 3 3 4 4 6 5 4 5 7 7 6 5 4 3 3 3 3 3 3 3 3 2 2 3 3 3 4
2 4 4 4 3 2 1 2 3 3 3 3 4 4 3 3 3 3 3 4 4 5 5 5 5 5 6 5 4 4 4 4 3 3 2 2 2 3 3 4 4 4 4 4
2 4 4 4 3 3 2 2 1 1 2 3 3 3 3 3 4 4 3 4 4 6 7 7 6 5 5 4 5 4 4 3 3 3 3 3 3 3 5 5 5 5 5 5
6 7 5 6 5 3 2 3 3 2 3 3 2 3 3 3 3 3 4 4 4 5 6 6 5 6 5 5 5 5 4 4 3 3 3 3 3 3 4 6 7 8 8 6
6 4 5 5 4 4 4 4 4 4 4 4 3 2 2 2 2 2 3 4 5 6 5 5 5 5 5 5 5 5 5 4 3 3 3 3 3 3 3 3 3 4 6 6
4 2 2 4 4 4 3 3 2 2 2 2 2 1 1 1 1 2 3 4 4 4 4 4 4 5 5 4 4 4 4 5 4 4 4 4 4 4 4 4 3 3 4 5
4 3 4 3 2 2 1 0 0 2 2 1 1 1 1 1 3 4 4 2 1 2 2 3 4 4 3 3 3 3 3 3 3 3 3 3 3 3 3 4 4 4 3 3
3 2 1 1 1 1 1 1 1 3 3 2 2 2 2 3 3 3 2 2 2 3 3 3 4 4 3 3 3 2 2 4 3 3 3 3 3 3 3 4 3 3 3 3
3 3 3 3 3 3 3 3 4 4 4 4 4 3 1 1 1 2 2 3 3 4 4 4 4 4 3 3 3 3 2 3 3 3 2 3 3 3 3 3 3 4 4 4
5 6 6 5 5 4 3 3 3 4 4 5 2 1 2 2 3 3 3 2 1 2 3 3 3 3 3 3 3 3 3 3 3 3 2 3 3 3 3 3 4 4 4 3
4 5 4 4 5 4 4 4 4 3 2 2 2 2 2 2 2 2 2 1 1 3 4 3 2 2 3 3 3 3 3 3 3 3 3 3 3 3 3 4 4 4 3 3
3 2 2 2 2 2 3 3 2 1 1 1 1 1 1 2 1 1 1 2 4 4 3 2 2 2 3 3 2 2 2 3 3 3 3 3 3 3 3 4 3 3 3 2
2 1 0 0 0 1 2 2 2 1 1 1 2 2 2 2 2 1 1 2 4 2 2 2 2 2 2 2 2 2 2 2 2 2 2 3 3 3 3 3 3 3 2 2
1 1 1 0 1 1 0 1 1 1 1 0 0 0 0 1 1 1 2 3 3 1 1 1 2 2 1 2 2 2 2 2 2 2 2 2 2 3 3 3 3 3 3 3
0 1 1 1 1 1 1 1 0 1 1 1 1 1 1 2 1 1 3 3 2 1 1 2 2 2 1 1 1 2 2 2 2 2 2 2 3 3 3 3 3 2 2 2
0 1 1 1 2 3 2 1 1 1 0 1 1 1 1 1 1 2 2 2 2 2 1 2 2 2 2 1 1 2 2 2 2 2 2 2 2 2 2 2 2 2 2 3
1 2 2 2 2 1 0 0 1 2 2 2 2 2 1 1 1 2 2 1 1 0 0 0 1 2 2 1 2 2 2 2 2 2 2 2 2 2 2 2 2 2 2 2
1 1 1 0 1 1 0 0 1 1 1 1 2 2 2 2 1 1 1 1 2 2 1 1 1 1 1 1 1 1 2 2 1 1 2 2 2 2 2 2 2 2 2 2
2 2 2 2 2 1 1 1 1 0 0 0 1 1 1 2 2 1 1 1 2 2 1 1 1 0 0 0 1 1 1 1 1 1 1 1 1 1 2 2 2 2 2 2
Wind_Direction
215 224 180 206 234 188 186 188 187 217 218 244 238 230 220 201 180 169 178 186 193 195 199 189 183 180 172 174 177 179 184 203 220 227 220 221 230 233 225 221 227 222 230 251
294 287 195 242 282 225 208 188 194 209 248 250 230 201 194 198 188 191 205 204 199 194 190 186 184 177 171 179 182 175 186 209 221 223 222 227 235 239 239 240 237 222 227 238
237 291 15 270 253 217 203 205 180 205 233 235 209 206 205 204 200 208 214 208 204 203 199 196 191 181 184 192 180 177 194 211 215 214 224 237 238 237 244 244 241 239 237 234
159 110 226 242 246 188 179 230 216 223 235 212 224 225 215 205 202 213 215 213 211 204 198 197 188 182 181 175 176 187 201 214 217 215 227 235 228 234 242 241 240 242 243 240
137 186 262 285 248 179 176 259 234 214 239 260 60 40 304 237 213 213 214 212 208 200 196 187 187 186 174 180 183 189 205 217 223 221 225 228 233 241 237 231 242 242 246 242
135 168 225 241 265 209 132 265 256 190 206 188 107 171 260 250 226 230 226 212 201 188 175 181 192 178 173 187 190 204 214 220 218 214 216 224 231 236 234 223 241 247 249 240
161 203 251 255 273 110 173 238 245 198 200 188 195 220 250 254 239 227 221 207 189 180 186 195 186 174 183 195 211 219 216 216 219 216 218 222 225 229 232 232 236 243 251 254
152 183 249 264 131 180 219 249 218 203 204 209 241 265 269 249 243 232 225 211 189 185 199 197 181 176 191 211 220 211 200 205 220 226 226 221 210 225 222 224 240 254 264 279
185 208 246 254 227 250 215 223 230 212 231 209 231 260 258 239 236 240 230 217 201 191 197 205 196 188 199 216 206 199 199 211 221 224 228 218 209 218 224 223 235 253 257 268
226 269 281 287 298 313 278 237 252 235 226 215 225 244 248 247 248 250 247 226 208 189 195 213 215 210 213 208 196 193 206 223 225 218 231 237 225 216 218 223 232 243 249 261
238 273 310 303 276 269 301 325 326 304 242 216 215 259 255 243 248 250 248 232 209 206 212 221 220 221 219 198 185 196 208 221 225 223 220 229 235 231 227 228 222 226 238 240
225 229 213 251 262 255 268 280 273 280 292 279 233 243 256 244 249 247 244 234 222 222 224 228 223 225 219 199 191 194 208 221 224 224 224 224 231 262 252 239 241 236 233 233
229 235 224 256 271 252 240 252 261 255 253 262 272 252 243 250 256 257 254 241 228 228 230 225 219 224 222 201 194 198 207 216 219 220 224 227 228 234 262 280 259 244 237 235
238 222 270 270 267 264 256 257 269 285 278 253 247 257 261 287 288 269 260 255 245 234 230 221 215 225 223 201 197 204 207 215 217 219 219 220 227 232 233 244 266 278 266 252
265 243 235 262 288 300 285 259 334 297 285 293 264 235 250 250 252 260 268 270 252 238 237 220 224 239 221 198 201 208 211 220 221 217 217 220 222 227 232 237 247 262 280 286
265 282 251 239 245 257 233 203 233 259 255 255 249 243 247 249 256 270 269 234 216 233 238 228 236 243 224 200 208 221 225 231 225 213 215 217 217 221 231 237 246 257 265 270
199 238 244 247 245 250 235 228 228 241 246 247 243 232 220 225 280 285 275 252 228 222 220 219 235 243 224 208 211 220 221 232 224 214 211 217 217 220 228 235 242 253 258 250
213 219 223 224 229 238 245 246 246 246 245 254 252 212 199 202 225 244 250 258 291 296 265 242 238 232 224 217 211 213 210 218 221 217 218 219 218 218 221 230 239 250 262 256
225 231 238 238 234 224 222 233 243 246 254 241 217 231 237 230 233 240 234 220 244 270 276 266 245 229 239 238 222 203 204 206 214 217 216 219 225 226 226 235 244 248 247 241
230 229 234 239 235 220 225 233 220 227 243 200 189 221 266 269 246 217 203 232 248 252 257 249 229 229 241 236 218 192 193 202 217 224 220 222 228 233 235 239 242 244 244 238
223 217 218 250 296 262 222 198 172 195 227 188 185 209 238 263 269 223 190 261 283 274 250 219 217 232 231 216 191 187 187 198 215 225 226 228 235 241 247 246 242 243 243 242
217 187 206 203 89 346 288 153 164 179 189 199 223 248 284 298 298 297 268 255 270 257 217 222 226 225 222 194 177 180 188 194 206 216 221 229 233 241 247 241 229 231 237 241
187 192 191 202 181 154 48 49 115 169 186 209 230 256 261 259 243 235 289 291 298 273 233 231 220 207 190 178 188 197 200 201 207 216 226 233 236 239 243 239 229 228 228 231
73 108 111 106 96 88 63 356 359 2 311 277 264 257 250 281 315 289 277 297 300 287 262 232 211 184 162 179 198 204 211 216 222 234 243 248 246 241 237 232 231 237 235 229
94 95 80 74 77 88 156 6 49 40 27 6 344 332 323 245 233 273 297 308 311 325 346 296 180 174 171 193 200 207 219 227 234 235 237 248 255 252 242 231 227 231 235 234
59 85 104 142 153 177 193 60 62 37 40 21 350 345 351 347 335 336 359 12 24 23 22 25 88 140 174 218 232 227 228 231 237 248 255 257 257 250 249 247 241 238 233 228
41 46 46 34 23 40 118 113 118 346 115 133 323 332 356 11 23 26 28 29 28 25 12 12 33 76 159 219 250 253 245 240 237 241 247 246 252 260 259 245 239 238 231 224
Height
1482 1479 1480 1481 1481 1484 1488 1490 1496 1492 1490 1481 1478 1477 1476 1477 1478 1479 1480 1481 1483 1484 1485 1486 1487 1488 1489 1491 1493 1495 1496 1496 1497 1498 1498 1499 1499 1499 1499 1499 1499 1499 1499 1500
1483 1479 1479 1481 1479 1479 1480 1482 1485 1484 1483 1474 1474 1474 1475 1475 1476 1477 1478 1479 1480 1482 1483 1484 1485 1487 1488 1489 1491 1492 1493 1494 1494 1495 1496 1496 1496 1496 1496 1496 1496 1497 1497 1497
1492 1484 1481 1488 1479 1478 1478 1477 1478 1482 1478 1473 1473 1473 1473 1473 1474 1475 1475 1476 1477 1479 1480 1482 1483 1485 1486 1488 1489 1489 1490 1491 1492 1492 1492 1493 1493 1493 1494 1494 1494 1493 1494 1494
1495 1490 1498 1484 1472 1472 1474 1474 1473 1473 1472 1471 1471 1470 1471 1472 1472 1473 1474 1475 1476 1477 1478 1480 1482 1483 1485 1485 1486 1487 1487 1488 1489 1489 1489 1490 1490 1490 1490 1491 1491 1491 1491 1491
1499 1499 1492 1479 1471 1471 1474 1475 1470 1471 1470 1470 1470 1470 1471 1471 1471 1471 1472 1473 1474 1475 1476 1477 1479 1481 1482 1482 1483 1483 1484 1485 1486 1486 1487 1487 1487 1487 1487 1488 1488 1488 1488 1487
1496 1496 1497 1480 1467 1465 1470 1477 1467 1467 1468 1469 1470 1475 1471 1468 1469 1470 1470 1471 1472 1472 1473 1475 1476 1478 1479 1479 1480 1480 1481 1482 1482 1483 1483 1484 1484 1484 1484 1484 1484 1484 1484 1484
1493 1493 1485 1470 1465 1467 1480 1476 1465 1465 1465 1467 1468 1469 1467 1467 1467 1468 1468 1469 1469 1470 1471 1472 1473 1474 1475 1476 1476 1477 1478 1479 1479 1480 1480 1480 1481 1481 1481 1480 1480 1480 1480 1480
1492 1492 1486 1465 1465 1469 1468 1463 1462 1462 1463 1464 1465 1465 1464 1464 1465 1465 1465 1466 1466 1467 1468 1469 1470 1471 1471 1472 1474 1475 1475 1476 1477 1477 1477 1477 1477 1477 1477 1477 1477 1477 1476 1476
1477 1476 1466 1463 1463 1463 1462 1461 1461 1461 1462 1462 1463 1462 1462 1462 1463 1463 1463 1463 1464 1464 1464 1466 1467 1467 1468 1469 1470 1471 1471 1472 1473 1473 1474 1473 1474 1474 1473 1474 1474 1473 1472 1472
1471 1466 1463 1462 1461 1461 1461 1460 1460 1460 1460 1460 1460 1459 1459 1460 1460 1460 1460 1461 1461 1461 1461 1462 1463 1464 1464 1465 1467 1467 1468 1468 1469 1469 1469 1470 1470 1470 1470 1470 1470 1470 1469 1468
1468 1464 1462 1460 1460 1460 1459 1459 1459 1459 1459 1458 1458 1457 1457 1457 1457 1457 1457 1458 1458 1458 1458 1459 1460 1460 1461 1461 1463 1463 1464 1464 1465 1465 1465 1466 1467 1467 1467 1467 1467 1467 1466 1466
1465 1460 1460 1458 1458 1458 1458 1457 1457 1457 1456 1456 1456 1455 1455 1455 1455 1455 1454 1454 1454 1455 1455 1455 1456 1456 1457 1458 1459 1459 1460 1460 1461 1461 1462 1462 1462 1463 1463 1464 1464 1463 1463 1463
1457 1456 1456 1456 1456 1456 1456 1455 1455 1455 1454 1453 1453 1453 1453 1452 1452 1452 1452 1451 1451 1451 1451 1452 1452 1452 1453 1454 1455 1455 1456 1456 1457 1458 1458 1458 1458 1458 1459 1460 1460 1460 1459 1459
1454 1454 1453 1453 1453 1453 1453 1453 1453 1452 1452 1451 1451 1451 1450 1449 1450 1450 1449 1448 1448 1448 1448 1448 1448 1448 1449 1450 1450 1451 1452 1452 1453 1453 1454 1454 1455 1455 1456 1456 1456 1455 1456 1455
1451 1451 1451 1451 1450 1450 1450 1450 1450 1449 1449 1449 1448 1448 1447 1447 1447 1447 1447 1446 1445 1445 1444 1444 1444 1445 1445 1446 1446 1447 1447 1448 1449 1449 1450 1451 1451 1452 1452 1453 1452 1452 1451 1451
1449 1449 1449 1448 1448 1448 1448 1447 1447 1447 1447 1446 1445 1445 1444 1444 1444 1444 1443 1443 1443 1441 1441 1441 1441 1441 1441 1442 1443 1443 1444 1445 1445 1446 1447 1447 1448 1448 1449 1449 1448 1448 1448 1448
1446 1446 1446 1445 1445 1445 1445 1444 1444 1444 1444 1444 1443 1442 1442 1442 1442 1441 1441 1441 1440 1439 1438 1438 1438 1438 1438 1439 1439 1440 1440 1441 1442 1442 1443 1444 1445 1445 1446 1446 1445 1445 1445 1445
1443 1443 1444 1443 1442 1442 1442 1441 1442 1441 1441 1441 1440 1440 1439 1439 1439 1438 1438 1438 1437 1436 1436 1436 1436 1436 1436 1436 1436 1437 1437 1438 1439 1439 1440 1441 1442 1442 1442 1442 1442 1442 1442 1442
1440 1441 1441 1440 1440 1440 1439 1439 1439 1439 1439 1439 1438 1438 1438 1438 1437 1437 1436 1436 1435 1434 1433 1433 1433 1433 1433 1434 1434 1434 1434 1435 1436 1437 1437 1438 1438 1438 1439 1439 1439 1439 1439 1439
1437 1437 1437 1437 1437 1437 1436 1436 1436 1436 1436 1436 1436 1436 1436 1436 1436 1435 1435 1434 1433 1432 1432 1431 1431 1431 1431 1431 1432 1432 1432 1432 1433 1434 1434 1434 1435 1435 1436 1436 1436 1436 1436 1436
1434 1434 1434 1434 1434 1434 1434 1434 1434 1434 1434 1435 1435 1435 1435 1434 1434 1434 1432 1431 1431 1431 1430 1430 1429 1429 1429 1429 1430 1430 1430 1430 1431 1431 1431 1432 1432 1432 1432 1433 1433 1433 1433 1433
1431 1432 1432 1432 1431 1431 1431 1432 1432 1432 1433 1433 1434 1434 1434 1433 1433 1432 1432 1431 1430 1429 1429 1428 1428 1428 1428 1428 1428 1428 1428 1429 1429 1429 1429 1429 1430 1430 1430 1430 1430 1430 1430 1430
1430 1430 1430 1431 1430 1430 1430 1430 1431 1431 1431 1432 1432 1432 1432 1432 1431 1431 1430 1430 1429 1428 1427 1427 1427 1427 1427 1427 1427 1427 1427 1427 1427 1427 1427 1427 1428 1428 1428 1428 1428 1428 1428 1428
1429 1429 1430 1430 1429 1429 1429 1430 1430 1431 1431 1431 1432 1432 1431 1430 1430 1430 1429 1429 1428 1428 1427 1426 1426 1426 1426 1426 1426 1426 1426 1426 1426 1426 1426 1426 1426 1426 1426 1426 1426 1426 1426 1425
1429 1429 1429 1429 1429 1429 1429 1430 1430 1430 1430 1430 1431 1431 1430 1429 1429 1429 1428 1428 1427 1427 1427 1426 1426 1425 1425 1425 1425 1425 1425 1425 1425 1425 1424 1424 1424 1424 1424 1424 1423 1423 1423 1423
1430 1430 1430 1429 1429 1429 1429 1429 1429 1429 1429 1430 1430 1430 1429 1429 1428 1428 1427 1427 1426 1426 1425 1425 1424 1424 1424 1424 1424 1424 1423 1423 1423 1423 1423 1423 1423 1422 1422 1421 1421 1421 1421 1421
1430 1430 1430 1429 1430 1430 1429 1429 1429 1429 1429 1429 1429 1429 1429 1428 1428 1427 1427 1426 1426 1425 1425 1424 1424 1423 1423 1422 1422 1422 1421 1421 1421 1421 1421 1420 1420 1420 1420 1419 1419 1419 1419 1419